Lexington Weather

Lexington, Massachusetts, USA

34°F
10/30/2020 6:33am 
  • Lexington Conditions: Light snow, Mist, Overcast
  • Temperature: 34.3°F / 1.3°CColder 1.1°F than last hour.
  • Dew Point: 33.6°FDecreased 1.1°Fsince last hour.
  • Relative Humidity: 97
  • Wind: Wind from N N 1 mph, 10-min avg: 2 mph, gust: 4 mph
  • Barometer: 29.75 in Steady
  • Visibility: 5 miles
  • Rain Today: 0.09 in
  •   
Southeast Middlesex County - Winter Weather Advisory
 - SEE ALL NEARBY ALERTS -

Regional Weather Roundup
for Boston / Norton, MA

        
000
ASUS41 KBOX 250604
RWRBOX

REGIONAL WEATHER ROUNDUP
NATIONAL WEATHER SERVICE BOSTON/NORTON MA
200 AM EDT SUN OCT 25 2020

NOTE:  "FAIR" INDICATES FEW OR NO CLOUDS BELOW 12,000 FEET WITH NO 
SIGNIFICANT WEATHER AND/OR OBSTRUCTIONS TO VISIBILITY.

MAZALL-250700-
EASTERN MASSACHUSETTS
  
CITY           SKY/WX    TMP DP  RH WIND       PRES   REMARKS
BOSTON         MOCLDY    45  32  60 NW10      30.08R                  
6HR MIN TEMP:  45; 6HR MAX TEMP:  57;                                

BEVERLY        MOCLDY    45  34  65 NW7       30.07R                  
LAWRENCE       PTCLDY    42  33  70 CALM      30.09R                  
BEDFORD        PTCLDY    41  33  73 W6        30.07R                  
BLUE HILL        N/A     41  32  70 NW10      30.05R                  
NORWOOD        PTCLDY    44  33  65 NW3       30.08R                  
MARSHFIELD     CLOUDY    50  36  57 VRB6G13   30.06R                  
PLYMOUTH       CLOUDY    47  34  60 NW8       30.05S                  
TAUNTON        PTCLDY    46  33  60 NW6       30.07R                  
NEW BEDFORD    PTCLDY    47  34  60 N7        30.05R                  
$$

MAZALL-250700-
CAPE COD AND THE ISLANDS
  
CITY           SKY/WX    TMP DP  RH WIND       PRES   REMARKS
FALMOUTH       CLOUDY    48  36  61 N8        30.04R                  
HYANNIS        MOCLDY    51  41  68 N15G22    30.01R                  
CHATHAM        CLOUDY    52  43  71 N8        30.03R                  
PROVINCETOWN   CLOUDY    51  41  68 N17G23    30.05R                  
NANTUCKET      CLOUDY   N/A N/A N/A N17G26    30.01R                  
MARTHAS VNYRD  CLOUDY    50  37  61 N15G21    30.04R                  
$$
 
MAZALL-250700-
CENTRAL AND WESTERN MASSACHUSETTS
  
CITY           SKY/WX    TMP DP  RH WIND       PRES   REMARKS
WORCESTER      PTCLDY    40  31  70 NW9       30.07R                  
6HR MIN TEMP:  40; 6HR MAX TEMP:  53;                                

FITCHBURG      PTCLDY    40  33  76 CALM      30.10R                  
ORANGE         PTCLDY    41  31  67 NW9       30.11R                  
SPRINGFIELD    MOCLDY    43  32  66 N6        30.10R                  
WESTFIELD      MOCLDY    41  34  76 N5        30.11R                  
NORTH ADAMS    CLOUDY    44  32  62 W8        30.13R                  
PITTSFIELD     PTCLDY    41  32  70 NW8       30.10R                  
$$
 
RIZALL-250700-
RHODE ISLAND
  
CITY           SKY/WX    TMP DP  RH WIND       PRES   REMARKS
PROVIDENCE     MOCLDY    46  33  60 N8        30.08R                  
6HR MIN TEMP:  46; 6HR MAX TEMP:  62;                                

NEWPORT        PTCLDY    46  34  62 N15G22    30.06R                  
BLOCK ISLAND   PTCLDY    48  37  65 N17G25    30.06R                  
SMITHFIELD     PTCLDY    42  34  73 N9        30.08R                  
WESTERLY       PTCLDY    47  33  58 N13       30.07R                  
$$
 
CTZALL-250700-
CONNECTICUT
  
CITY           SKY/WX    TMP DP  RH WIND       PRES   REMARKS
BRADLEY INTL   MOCLDY    45  33  63 N7        30.11R                  
6HR MIN TEMP:  45; 6HR MAX TEMP:  53;                                

HARTFORD       MOCLDY    47  34  60 N9        30.11R                  
BRIDGEPORT     PTCLDY    46  35  65 NW9       30.09R                  
DANBURY        MOCLDY    43  32  65 N8          N/A                   
GROTON         PTCLDY    47  36  65 N10       30.06R                  
NEW HAVEN      PTCLDY    47  37  68 N6        30.08S                  
CHESTER        FAIR      45  37  76 N8        30.07S                  
MERIDEN        MOCLDY    45  35  68 N8        30.10R                  
WILLIMANTIC    MOCLDY    45  34  65 N9        30.10R                  
OXFORD         MOCLDY    41  36  82 N9        30.10R                  
$$

MEZ002-015-021-024-NHZ003-005-008-011-012-014-VTZ005-008-250700-
NORTHERN NEW ENGLAND
  
CITY           SKY/WX    TMP DP  RH WIND       PRES   REMARKS
PORTLAND ME    CLOUDY    43  32  65 N6        30.07R                  
6HR MIN TEMP:  43; 6HR MAX TEMP:  51;                                

BANGOR ME      CLOUDY    42  33  70 NW12      30.04R                  
CONCORD NH     PTCLDY    39  30  70 NW6       30.08R                  
MANCHESTER NH  PTCLDY    44  31  60 NW3       30.07R                  
NASHUA NH      PTCLDY    38  34  85 W5        30.10R                  
PORTSMOUTH NH  CLOUDY    46  33  61 NW5       30.05                   
JAFFREY NH     PTCLDY    40  28  62 VRB5      30.08R                  
KEENE NH       PTCLDY    36  32  85 CALM      30.11R                  
BURLINGTON VT  CLOUDY    42  29  59 NW15G25   30.19R                  
MT. WASHINGTON NOT AVBL                                               
$$

NYZ052-076-250700-
EASTERN NEW YORK
  
CITY           SKY/WX    TMP DP  RH WIND       PRES   REMARKS
ALBANY         MOCLDY    39  31  72 NW8       30.17R                  
6HR MIN TEMP:  39; 6HR MAX TEMP:  45;                                

NEW YORK CITY  MOCLDY    50  37  61 N12       30.10R                  
6HR MIN TEMP:  50; 6HR MAX TEMP:  60;                                

$$
 
ANZALL-250700-
MARINE OBSERVATIONS
  
STATION/POSITION TIME  TEMP    WIND        PRES    VSBY  WAVE
                       AIR SEA DIR/SP/G                  HT/PER
                 (UTC) (F)     (DEG/KT/KT) (MB)    (MI)  (FT/S)
BOSTON BUOY      0550   49 58  340/ 17/ 19 1016.8R         5/11
BUZZARDS BAY     0500          350/ 21/ 23 1017.8R
NANTUCKET SOUND  0550      62  340/ 19/ 23   N/A           2/ 4
MASS BAY-STELLWA 0504   50 57  330/ 16/ 19 1016.7R  1 7/8  6/11
ISLE OF SHOALS   0500   48     300/ 10/ 11 1017.1R
S OF BLOCK IS    0526      63                N/A           7/13
$$

......................KEY.........................
  SKY/WX - SKY CONDITION/PRESENT WEATHER
  TMP    - TEMPERATURE IN FAHRENHEIT
  DWPT   - DEWPOINT IN FAHRENHEIT
  RH     - RELATIVE HUMIDITY IN PERCENT
  WIND   - DIRECTION AND SPEED IN MPH
  PRES   - MEAN SEA LEVEL PRESSURE IN INCHES OF HG
  WCI    - WIND CHILL INDEX
  VSB    - VISIBILITY IN MILES
  HX     - HEAT INDEX
  TC     - TEMPERATURE IN CELSIUS
  VRB    - VARIABLE WIND DIRECTION
  N/A    - NOT AVAILABLE
  
      

Other recent Regional Weather Roundups

Fri Oct 30, 6:04am

Fri Oct 30, 5:04am

Fri Oct 30, 4:04am

Fri Oct 30, 3:04am

Fri Oct 30, 2:04am

Fri Oct 30, 1:04am

Fri Oct 30, 12:04am

Thu Oct 29, 11:04pm

Thu Oct 29, 10:04pm

Thu Oct 29, 9:04pm

Thu Oct 29, 8:04pm

Thu Oct 29, 7:04pm

Thu Oct 29, 6:04pm

Thu Oct 29, 5:05pm

Thu Oct 29, 4:05pm

Thu Oct 29, 3:05pm

Thu Oct 29, 2:04pm

Thu Oct 29, 1:04pm

Thu Oct 29, 12:04pm

Thu Oct 29, 11:04am

Thu Oct 29, 10:04am

Thu Oct 29, 9:04am

Thu Oct 29, 8:04am

Thu Oct 29, 7:04am

Thu Oct 29, 6:04am

Thu Oct 29, 5:04am

Thu Oct 29, 4:04am

Thu Oct 29, 3:04am

Thu Oct 29, 2:04am

Thu Oct 29, 1:05am

Thu Oct 29, 12:04am

Wed Oct 28, 11:05pm

Wed Oct 28, 10:04pm

Wed Oct 28, 9:04pm

Wed Oct 28, 8:04pm

Wed Oct 28, 7:05pm

Wed Oct 28, 6:04pm

Wed Oct 28, 5:05pm

Wed Oct 28, 4:04pm

Wed Oct 28, 3:04pm

Wed Oct 28, 2:04pm

Wed Oct 28, 1:05pm

Wed Oct 28, 12:05pm

Wed Oct 28, 11:05am

Wed Oct 28, 10:04am

Wed Oct 28, 9:04am

Wed Oct 28, 8:04am

Wed Oct 28, 7:04am

Wed Oct 28, 6:04am

Wed Oct 28, 5:05am

Wed Oct 28, 4:04am

Wed Oct 28, 3:04am

Wed Oct 28, 2:04am

Wed Oct 28, 1:05am

Wed Oct 28, 12:04am

Tue Oct 27, 11:04pm

Tue Oct 27, 10:04pm

Tue Oct 27, 9:05pm

Tue Oct 27, 8:04pm

Tue Oct 27, 7:04pm

Tue Oct 27, 6:04pm

Tue Oct 27, 5:04pm

Tue Oct 27, 4:05pm

Tue Oct 27, 3:04pm

Tue Oct 27, 2:04pm

Tue Oct 27, 1:04pm

Tue Oct 27, 12:04pm

Tue Oct 27, 11:04am

Tue Oct 27, 10:04am

Tue Oct 27, 9:04am

Tue Oct 27, 8:04am

Tue Oct 27, 7:04am

Tue Oct 27, 6:04am

Tue Oct 27, 5:04am

Tue Oct 27, 4:04am

Tue Oct 27, 3:04am

Tue Oct 27, 2:05am

Tue Oct 27, 1:04am

Tue Oct 27, 12:04am

Mon Oct 26, 11:05pm

Mon Oct 26, 10:04pm

Mon Oct 26, 9:04pm

Mon Oct 26, 8:04pm

Mon Oct 26, 7:04pm

Mon Oct 26, 6:04pm

Mon Oct 26, 5:04pm

Mon Oct 26, 4:05pm

Mon Oct 26, 2:04pm

Mon Oct 26, 1:04pm

Mon Oct 26, 12:04pm

Mon Oct 26, 11:05am

Mon Oct 26, 10:04am

Mon Oct 26, 9:04am

Mon Oct 26, 8:04am

Mon Oct 26, 7:04am

Mon Oct 26, 6:04am

Mon Oct 26, 5:04am

Mon Oct 26, 4:04am

Mon Oct 26, 3:04am

Mon Oct 26, 2:04am

Mon Oct 26, 1:04am

Mon Oct 26, 12:04am

Sun Oct 25, 11:05pm

Sun Oct 25, 10:04pm

Sun Oct 25, 9:04pm

Sun Oct 25, 8:04pm

Sun Oct 25, 7:04pm

Sun Oct 25, 6:04pm

Sun Oct 25, 5:04pm

Sun Oct 25, 4:05pm

Sun Oct 25, 3:04pm

Sun Oct 25, 2:04pm

Sun Oct 25, 1:04pm

Sun Oct 25, 12:04pm

Sun Oct 25, 11:04am

Sun Oct 25, 10:04am

Sun Oct 25, 9:04am

Sun Oct 25, 8:04am

Sun Oct 25, 7:04am

Sun Oct 25, 6:04am

Sun Oct 25, 5:04am

Sun Oct 25, 4:04am

Sun Oct 25, 3:04am

Sun Oct 25, 1:05am

Sun Oct 25, 12:04am

Sat Oct 24, 11:04pm

Sat Oct 24, 10:04pm

Sat Oct 24, 9:04pm

Sat Oct 24, 8:04pm

Sat Oct 24, 7:04pm

Sat Oct 24, 6:04pm

Sat Oct 24, 5:05pm

Sat Oct 24, 4:04pm

Sat Oct 24, 3:04pm

Sat Oct 24, 2:04pm

Sat Oct 24, 1:05pm

Sat Oct 24, 12:04pm

Sat Oct 24, 11:05am

Sat Oct 24, 10:05am

Sat Oct 24, 9:04am

Sat Oct 24, 8:04am

Sat Oct 24, 7:04am

Sat Oct 24, 6:04am

Sat Oct 24, 5:04am

Sat Oct 24, 4:04am

Sat Oct 24, 3:04am

Sat Oct 24, 2:04am

Sat Oct 24, 1:05am

Sat Oct 24, 12:04am

Fri Oct 23, 11:04pm

Fri Oct 23, 10:04pm

Fri Oct 23, 9:04pm

Fri Oct 23, 8:05pm

Fri Oct 23, 7:04pm

Fri Oct 23, 6:04pm

Fri Oct 23, 5:05pm

Fri Oct 23, 4:04pm

Fri Oct 23, 3:04pm

Fri Oct 23, 2:05pm

Fri Oct 23, 1:04pm

Fri Oct 23, 12:04pm

Fri Oct 23, 11:04am

Fri Oct 23, 10:04am

Fri Oct 23, 9:04am

Fri Oct 23, 8:04am

Fri Oct 23, 7:04am

Meta data:

ID: 1cf8f0e9-5ed3-4bf3-859f-1ac9dfa65b86
Link: https://api.weather.gov/products/1cf8f0e9-5ed3-4bf3-859f-1ac9dfa65b86